Regional Weather Roundup
Issued by NWS Pendleton, OR

Home | Current Version | Previous Version | Text Only | Print | Product List | Glossary On
Versions: 1 2 3 4 5 6 7 8 9 10 11 12 13 14 15 16 17 18 19 20 21 22 23 24 25 26 27 28 29 30 31 32 33 34 35 36 37 38 39 40 41 42 43 44 45 46 47 48 49 50
776
ASUS46 KPDT 172025
RWRPDT
PENDLETON REGIONAL WEATHER ROUNDUP
NATIONAL WEATHER SERVICE PENDLETON OREGON
100 PM PDT TUE OCT 17 2017

NOTE: FAIR INDICATES FEW OR NO CLOUDS BELOW 12,000 FEET WITH NO
SIGNIFICANT WEATHER AND/OR OBSTRUCTIONS TO VISIBILITY.

# INDICATES UNOFFICIAL STATION AND DATA

WAZ520-172110-
EAST SLOPES OF WASHINGTON CASCADES

CITY            SKY/WX      TMP DP  RH  WIND    PRES   REMARKS
#BULLFROG       N/A         50  46  86  W9G25   N/A
#CLE ELUM HS    N/A         51  44  77  W9      29.90R
#CLE ELUM LAKE  N/A         45  41  86  NW3     29.90R
#EASTON DOT     N/A         44  44  100 N8      N/A
#ELK HTS DOT    N/A         53  53  100 W3G30   N/A
#GLENWOOD       N/A         57  48  72  SW9     30.01S
#NELSON 3SW     N/A         47  43  86  N2      30.16R
#NILE           N/A         58  45  62  W8      29.19R
#TROUT LAKE 1NE N/A         53  45  74  NW3     30.04R
#TROUT LAKE 1E  N/A         54  46  74  N1      30.06S
$$

WAZ521-172110-
SIMCOE HIGHLANDS

CITY            SKY/WX      TMP DP  RH  WIND    PRES   REMARKS
#BICKLETON HS   N/A         57  48  72  SW25    29.93R
#CENTERVILLE 1SWN/A         58  45  62  NW18    29.99S
#GOLDENDALE 1NE N/A         58  33  39  W9      N/A
#GOLDENDALE 4W  N/A         57  32  38  W14     30.07R
#GOODNOE HILLS  N/A         65  48  54  W30G44  N/A
#LYLE 6NE       N/A         53  47  80  S7      30.04R
#PITT 4SE       N/A         52  46  80  SW12    30.03F
$$

WAZ026-172110-
KITTITAS VALLEY

CITY            SKY/WX      TMP DP  RH  WIND    PRES   REMARKS
ELLENSBURG AP   LGT RAIN    61  43  51  NW40G55 29.87R
#ELLENSBURG CWU N/A         58  44  60  N16     29.82R
#ELLENSBURG 3NE N/A         58  45  62  NW17G38 27.95R
#ELLENSBURG 1E  N/A         58  44  60  NW10    29.91R
#KITTITAS 3S    N/A         58  45  62  NW18G31 29.86R
#MANASTASH RDG  N/A         59  59  100 N9      N/A
#ROCKY CYN DOT  N/A         59  43  55  NW31G47 N/A
#RYEGRASS DOT   N/A         56  38  51  NW28G40 N/A
$$

WAZ027-172110-
YAKIMA VALLEY

CITY            SKY/WX      TMP DP  RH  WIND    PRES   REMARKS
SUNNYSIDE AP    MOCLDY      72  46  39  W13G26  29.90R
YAKIMA AIRPORT  PTCLDY      75  43  32  NW21G28 29.87R
YAKIMA-VAGABOND SUNNY       69  39  33  W37G46  29.83S
#DONALD 2NE     N/A         69  12  11  S15     29.91R
#GRANDVIEW      N/A         72  45  38  SW6     29.92S
#MABTON         N/A         70  50  49  SW18G36 29.89R
#MOXEE 2E       N/A         68  N/A N/A W15     29.81R
#NACHES 2SW     N/A         65  45  48  W12     29.91S
#OUTLOOK DOT    N/A         70  43  38  CALM    29.85
#PARKER DOT     N/A         69  43  39  NE17G24 29.86F
#TERRACE HTS    N/A         72  46  39  SW7     29.84R
#TOPPENISH      N/A         68  47  47  W15G29  29.82S
#I82 S UMTANUM RN/A         67  41  39  SW25G39 N/A
#UNION GAP DOT  N/A         68  42  39  SW20G26 29.90R
#W YAKIMA       N/A         68  46  45  NW5     29.88R
#WHITE SWAN 5E  N/A         69  47  45  SW18G32 29.91R
#WILEY CITY 3W  N/A         73  35  25  W1      29.84R
#ZILLAH DOT     N/A         69  43  39  W17     N/A
$$

WAZ028-172110-
LOWER COLUMBIA BASIN...WASHINGTON

CITY            SKY/WX      TMP DP  RH  WIND    PRES   REMARKS
HANFORD         PTCLDY      70  28  21  S10     29.87F
PASCO           CLOUDY      69  39  33  SW15    29.93S
PROSSER AWOS    N/A         70  46  42  SW20G33 29.93F
RICHLAND AWOS   CLOUDY      71  42  35  S10     29.90S
#BENTON CITY    N/A         67  44  43  W9      29.77F
#CONNELL 5N     N/A         65  40  40  SW14    29.85F
#CONNELL 5NW    N/A         64  41  43  SW15G26 29.80F
#ELTOPIA 6NW    N/A         63  45  52  S9G26   28.84F
#KAHLOTUS       N/A         63  38  39  W44G56  29.84F
#KENNEWICK 3S   N/A         65  43  45  E6G24   29.89F
#PATERSON       N/A         69  44  40  NW15G32 29.93S
#PROSSER DOT    N/A         71  44  38  SW21G29 29.90F
#SAGEMOOR 2W    N/A         64  43  46  S17G26  29.72F
#TOUCHET 2S     N/A         73  41  31  SW10    29.93F
#WEST PASCO     N/A         69  45  42  CALM    29.90R
$$

WAZ029-172110-
FOOTHILLS OF THE BLUES...WASHINGTON

CITY            SKY/WX      TMP DP  RH  WIND    PRES   REMARKS
WALLA WALLA AP  PTCLDY      71  37  29  SW13    29.95F
#CLYDE 6NW      N/A         64  35  34  SW28G38 29.87F
#DAYTON SCHOOL  N/A         69  31  24  W6      29.93F
#DELANEY DOT    N/A         70  30  22  S15G25  29.93S
#LOWDEN 2SE     N/A         73  40  30  W17G31  29.90F
#PLEASANT VIEW 1N/A         64  34  33  S30G41  29.89F
#PRESCOTT       N/A         69  38  32  CALM    29.93F
#WHITMAN COLLEGEN/A         70  40  34  NW5     29.97F
#WAITSBURG 6SSE N/A         67  32  27  SE7     29.93F
#WAITSBURG 8N   N/A         65  N/A N/A S26     29.68F
#WALLA WALLA 5E N/A         74  40  29  W16     N/A
#WHITMAN MISSIONN/A         74  41  30  SW7     29.95F
$$

WAZ030-172110-
BLUE MOUNTAINS...WASHINGTON

CITY            SKY/WX      TMP DP  RH  WIND    PRES   REMARKS
#DIXIE 5SE      N/A         64  32  30  SW22G32 29.90F
$$

ORZ009-041-WAZ024-172110-
COLUMBIA RIVER GORGE

CITY            SKY/WX      TMP DP  RH  WIND    PRES   REMARKS
HOOD RIVER AP   CLOUDY      54  46  74  W17G26  30.05F
THE DALLES AP   PTCLDY      62  48  60  N17G26  30.02F
#ARLINGTON AIRPON/A         67  44  43  SW26    29.93F
#CELILO DOT     N/A         63  43  48  SW8     N/A
#LYLE           N/A         58  49  72  W15     30.05F
#MARYHILL       N/A         64  45  50  N17G31  N/A
#MURDOCK        N/A         59  50  72  NW15    30.00S
#RUFUS DOT      N/A         66  N/A N/A W22     N/A
#SMITHVILLE     N/A         59  49  69  NW12    29.98S

$$

ORZ510-172110-
NORTH CENTRAL OREGON

CITY            SKY/WX      TMP DP  RH  WIND    PRES   REMARKS
#ANTELOPE       N/A         65  36  34  SW15    29.91F
#CHENOWITH 1W   N/A         53  46  77  NW23    N/A
#COW CYN RST AREN/A         63  29  28  SW12    N/A
#DUFUR          N/A         64  48  56  NE8     29.97F
#DUFUR 9E       N/A         55  43  64  NW7     30.05R
#GRASS VALLEY 1SN/A         67  42  40  W22G33  30.03S
#KENT DOT       N/A         66  23  19  SW23    N/A
#MAUPIN SCHOOL  N/A         72  45  38  W12     30.06F
#MORO SCHOOL    N/A         61  48  62  W13     30.01S
#SHANIKO 5WSW   N/A         60  -7   6  SW18    N/A
#SHANIKO 4NW    N/A         62  27  26  SW9     30.07F
#TYGH VALLEY 2NEN/A         70  46  42  N10     29.99F
#WAPANITIA AIRPON/A         67  44  43  W15G24  30.04S
#WASCO DOT      N/A         62  43  50  W16     N/A
#WASCO 5NE      N/A         62  45  54  W12G28  29.98F
$$

ORZ511-172110-
CENTRAL OREGON

CITY            SKY/WX      TMP DP  RH  WIND    PRES   REMARKS
BEND AIRPORT    MOCLDY      70  30  22  SW12    30.11F
MADRAS AIRPORT  PTCLDY      70  63  78  SW18G26 30.07F
PRINEVILLE AP   MOCLDY      66  34  30  N10     30.11F
REDMOND AIRPORT PTCLDY      69  29  22  N7      30.10F
#ASHWOOD SCHOOL N/A         70  32  24  SW10    30.01F
#BEND 1SW       N/A         64  34  33  NW3     N/A
#BEND-AWBREY    N/A         66  35  32  W5      30.02F
#BEND-KIM LN    N/A         66  38  36  N1      30.01F
#CULVER         N/A         67  30  25  S10G25  29.90F
#CULVER 8W      N/A         70  23  17  S7      30.07F
#LAKE BILLY CHINN/A         68  N/A N/A SW9     30.11F
#MADRAS 4S      N/A         68  14  12  SW16    30.09
#POWELL BUTTE   N/A         65  34  31  NW1     30.04F
#PRINEVILLE     N/A         64  41  43  CALM    30.16F
#PRINEVILLE 3N  N/A         63  43  48  NW1     30.07F
#WARM SPRINGS   N/A         62  39  43  CALM    29.90F

$$


ORZ509-172110-
EAST SLOPES OF OREGON CASCADES

CITY            SKY/WX      TMP DP  RH  WIND    PRES   REMARKS
SISTERS AWOS    N/A         64  34  33  SW24G35 N/A
#BLUE BOX PASS  N/A         48  N/A N/A NW5     N/A
#CAMP SHERMAN   N/A         66  29  25  W1      30.16F
#LA PINE DOT    N/A         62  24  23  SW6     N/A
#LA PINE 4NW    N/A         61  37  41  W1      30.19F
#LAVA BUTTE DOT N/A         63  32  31  CALM    N/A
#SISTERS ODOT   N/A         65  30  27  SW9     N/A
#SISTERS 3N     N/A         64  32  30  N5      30.09F
#SUNRIVER       N/A         63  35  35  SW3     30.13F
#TUMALO 3W      N/A         66  34  30  NE2     29.88F
#WANOGA BUTTE D N/A         53  26  35  W10     N/A

$$

ORZ044-172110-
LOWER COLUMBIA BASIN...OREGON

CITY            SKY/WX      TMP DP  RH  WIND    PRES   REMARKS
HERMISTON       MOCLDY      71  38  30  W20G24  29.95F
#BOARDMAN SCHOOLN/A         70  41  35  SW13    29.93F
#BOARDMAN 8SW   N/A         72  43  35  W17     29.94F
#ECHO 8SW       N/A         72  39  30  W6      29.96F
#I-84 EX 198 DOTN/A         73  42  33  E17     N/A
#IONE SCHOOL    N/A         71  34  26  W10     29.96F
#UMATILLA       N/A         68  41  37  S13G26  29.87F
$$

ORZ507-172110-
NORTHERN FOOTHILLS OF THE BLUES

CITY            SKY/WX      TMP DP  RH  WIND    PRES   REMARKS
PENDLETON AIRPT PTCLDY      73  30  20  W25     29.96F
#ADAMS 3WNW     N/A         68  37  32  SW6     29.93F
#ATHENA         N/A         67  37  33  CALM    29.96F
#CAYUSE         N/A         69  39  33  W3      29.93F
#HELIX 3N       N/A         69  35  28  SW21G29 29.95F
#HOLDMAN 5SE    N/A         69  39  33  W18G26  29.95F
#HOLDMAN 6E     N/A         68  39  35  SW12    29.75F
#M-F GROVE ELEM N/A         73  30  20  W7      29.93F
#M-FREEWATER 5SEN/A         73  41  31  W5      29.94F
#PENDLETON DNTN N/A         70  47  44  CALM    29.95S
#PDT AQUATIC CTRN/A         66  45  47  CALM    29.93F
#PDT SUNRIDGE   N/A         67  41  39  NW3     29.96F
#PENDLETON 7NW  N/A         70  44  39  W15     27.43F
#PILOT ROCK     N/A         74  37  26  CALM    29.99F
#TUTUILLA       N/A         75  37  25  SW7     30.01F
#UMAPINE 2E     N/A         74  41  30  SW8     29.92F

$$

ORZ508-172110-
SOUTHERN FOOTHILLS OF THE BLUES

CITY            SKY/WX      TMP DP  RH  WIND    PRES   REMARKS
LEXINGTON       MOCLDY      75  27  17  SW22G32 30.01F HAZE
#FOSSIL SCHOOL  N/A         68  32  26  W14G25  29.98F
#HEPPNER EOC    N/A         72  32  23  SW14G30 29.89F
#HEPPNER 4NE    N/A         69  30  23  W22G33  29.93F
#LEXINGTON 2SE  N/A         76  31  19  W15G26  29.96F
#MIKKALO        N/A         72  25  17  W21G28  30.07F
#OLEX 4N        N/A         69  42  37  W20G30  29.94F
#RUGGS 5NE      N/A         69  22  17  SW16    30.20S
#RUGGS 2SW      N/A         70  30  22  W15     29.95F

$$

ORZ502-503-172110-
BLUE MOUNTAINS

CITY            SKY/WX      TMP DP  RH  WIND    PRES   REMARKS
MEACHAM         MOCLDY      65  29  26  VRB3    30.04F
#BATTLE MTN DOT N/A         56  32  40  S6      N/A
#GRANITE        N/A         60  32  35  S3      30.12F
#GREENHORN 9SW  N/A         57  35  43  CALM    26.31F
#HEPPNER 15SE   N/A         62  33  34  NW3     30.01F
#LADD CYN SMT   N/A         57  29  34  E21     N/A
#LADD CREEK ODOTN/A         62  33  34  S10     N/A
#LONG CREEK HS  N/A         64  32  30  W9      30.09F
#N POWDER DOT   N/A         57  31  37  W5      N/A
#TOLLGATE       N/A         56  30  37  S5      29.91F
#TROY SCHOOL    N/A         55  39  55  CALM    29.83F
#UKIAH          N/A         51  38  61  NE5     30.00F
#WESTON 4E      N/A         66  32  28  S12     29.89F
$$

ORZ505-172110-
JOHN DAY BASIN

CITY            SKY/WX      TMP DP  RH  WIND    PRES   REMARKS
JOHN DAY        CLOUDY      62  33  34  CALM    30.11F
#ANTELOPE 9ESE  N/A         75  34  22  SW7G25  N/A
#DAYVILLE SCHOOLN/A         54  36  50  CALM    30.06F
#MITCHELL 8NW   N/A         66  29  25  W8      30.02F
#SPRAY SCHOOL   N/A         57  N/A N/A CALM    N/A
$$

ORZ506-172110-
OCHOCO AND JOHN DAY HIGHLANDS

CITY            SKY/WX      TMP DP  RH  WIND    PRES   REMARKS
#HORSE RIDGE DO N/A         62  28  27  SW15    N/A
#IZEE 6NW       N/A         66  31  27  W8      N/A
#PAULINA ODOT   N/A         53  35  50  CALM    N/A
#PINE MTN OBS   N/A         52  27  38  S7      N/A
#PRAIRIE CITY   N/A         63  36  36  CALM    30.26F
#SENECA         N/A         58  N/A N/A S1      N/A
#SENECA 9NW     N/A         53  34  48  CALM    30.16F
$$

ORZ049-172110-
GRANDE RONDE VALLEY

CITY            SKY/WX      TMP DP  RH  WIND    PRES   REMARKS
LA GRANDE       CLOUDY      63  29  28  S13     30.06F
#COVE           N/A         64  40  41  N6      30.08F
#COVE SCHOOL    N/A         64  37  37  CALM    30.06F
#COVE 6NW       N/A         63  33  32  SE7     30.02F
#ELGIN 3N       N/A         64  28  25  S10     29.98F
#ELGIN 1E       N/A         62  33  34  S7      N/A
#IMBLER SCHOOL  N/A         60  30  32  SE10G24 30.00F
#ISLAND CITY 4N N/A         52  50  93  CALM    30.16R
#UNION 1S       N/A         62  33  34  S10     30.02F
$$

ORZ050-172110-
WALLOWA COUNTY

CITY            SKY/WX      TMP DP  RH  WIND    PRES   REMARKS
JOSEPH AIRPORT  MOCLDY      61  28  28  CALM    30.05F
#ENTERPRISE HS  N/A         60  40  47  CALM    29.93F
#IMNAHA SCHOOL  N/A         71  29  21  N13     29.97F
#IMNAHA 10S     N/A         67  30  25  SW7     29.99F
#JOSEPH         N/A         61  30  31  NE5     30.24F
#JOSEPH 3N      N/A         58  36  44  CALM    30.06F
#JOSEPH 3W      N/A         64  31  29  S1      30.47F
#LOSTINE        N/A         56  39  53  CALM    29.86F
#LOSTINE 3SE    N/A         57  35  43  CALM    30.09F
#MT HOWARD 8000 N/A         48  22  35  W16G30  30.18F WCI 42
#PROMISE 1S     N/A         59  33  37  S7      30.06F
#WALLOWA LAKE   N/A         59  34  39  NE2     30.06F
#WALLOWA SCHOOL N/A         50  37  61  CALM    29.99F



$$



USA.gov is the U.S. government's official web portal to all federal, state and local government web resources and services.